Regional Weather Roundup
Issued by NWS

Home | Current Version | Previous Version | Text Only | Print | Product List | Glossary Off
Versions: 1 2 3 4 5 6 7 8 9 10 11 12 13 14 15 16 17 18 19 20 21 22 23 24 25 26 27 28 29 30 31 32 33 34 35 36 37 38 39 40 41 42 43 44 45 46 47 48 49 50

000
ASUS45 KSLC 220010
RWRUT

UTAH REGIONAL WEATHER ROUNDUP
NATIONAL WEATHER SERVICE SALT LAKE CITY UT
600 PM MDT TUE OCT 21 2014

UTZ001>011-023>025-220100-

NORTHERN UTAH

CITY           SKY/WX    TMP DP  RH WIND       PRES   REMARKS
BRIGHAM CITY   MOCLDY    58  29  32 N13       30.02S
HILL AFB       CLOUDY    55  28  36 CALM      30.03S
LOGAN          PTCLDY    56  35  45 N12       30.03R
OGDEN          MOCLDY    57  28  33 CALM      30.02R
PROVO AIRPORT  NOT AVBL
SALT LAKE CITY MOCLDY    59  24  26 NW8       30.02R
VERNAL         CLOUDY    55  45  68 NW9       29.93S
WENDOVER       CLEAR     61  19  20 N15G23    30.01R
HEBER CITY     MOCLDY    54  36  50 NE7       30.00R
WEST JORDAN    CLOUDY    55  34  44 NW8       30.04R

$$

UTZ012>022-026-027-220100-

SOUTHERN/CENTRAL UTAH

CITY           SKY/WX    TMP DP  RH WIND       PRES   REMARKS
BLANDING       PTCLDY    64  39  40 S3        30.09F
BRYCE CANYON   MOCLDY    57  35  43 SW9       30.09R
CEDAR CITY     MOCLDY    65  34  31 SW13      29.98R
DELTA          MOCLDY    62  31  31 N20       29.96R
HANKSVILLE       N/A     73  32  21 SW17      29.89S
MILFORD        CLOUDY    70  36  28 SW20      29.93S
MOAB/CYNLANDS  CLEAR     72  35  25 SW13      29.87F
PRICE          CLOUDY    61  50  67 E6        29.94S
ST GEORGE      MOCLDY    81  41  24 W8        29.86S
KANAB            N/A     72  37  28 SW9       29.98S

$$

REGIONAL REPORTS     COLORADO/ARIZONA

CITY           SKY/WX    TMP DP  RH WIND       PRES   REMARKS
CRAIG, CO      CLOUDY    61  37  41 SW8       29.98S
GRAND JUNCTION MOCLDY    63  42  46 SE9       29.95F THUNDER
RIFLE          LGT RAIN  62  45  53 SW8       29.99R
MONTROSE       MOCLDY    61  45  55 SE7       30.03F
CORTEZ         CLEAR     64  41  42 SW6       30.04F
PAGE, AZ       PTCLDY    75  35  23 NE6       29.91F
GRAND CANYON   PTCLDY    64  34  32 SW8       30.08S
KINGMAN        CLEAR     76  44  32 SW13      29.90F
FLAGSTAFF      PTCLDY    61  37  41 SW14      30.11S

$$

REGIONAL REPORTS    NEVADA/IDAHO/WYOMING

CITY           SKY/WX    TMP DP  RH WIND       PRES   REMARKS
LAS VEGAS, NV  MOSUNNY   84  15   7 SW15G24   29.76F
ELY            PTCLDY    60   9  13 NW6       30.04S
ELKO           CLEAR     56  19  23 W7        30.06S
POCATELLO, ID  MOCLDY    50  36  58 SW15      30.06S
BURLEY         CLEAR     50  35  56 W9        30.06R
EVANSTON, WY   MOCLDY    48  24  39 W14       30.06R
ROCK SPRINGS   MOCLDY    50  43  77 W7        30.01R
KEMMERER       PTCLDY    43  27  52 W15       30.04S

$$



USA.gov is the U.S. government's official web portal to all federal, state and local government web resources and services.